map of VIX home
VIX - Airport
Location
City:  Vitória, Espírito Santo, Brazil
Name:Eurico de Aguiar Salles Airport
Old (Alt.):Goiabeiras Airport
ICAO:SBVT
IATA:VIX

Details
Type:Airport (Aerodrome, Airfield)
Use:Public/Civil
Latitude:20°15'29"S (-20.258055)
Longitude:40°17'11"W (-40.286388)
Elevation:10 ft (3 m)
Variation:23.77°W (WMM2015v2 magnetic declination)
-0.04° annual change
Runways:1
Longest:5741 × 148 ft (1750 × 45 m), paved

Time
Time Zone:UTC-3 (DST-2)
Local Time:

Weather
METAR:SBVT 041400Z 16015KT 9999 FEW045 29/22 Q1013
TAF:SBVT 041000Z 0412/0512 06015KT 9999 FEW030 TX33/0416Z TN25/0508Z
BECMG 0500/0502 36008KT
RMK PFM

Related Locations
Nearby:
Farthest:IWO: 12103 mi / 19479 km
Iwo Jima [Iwo Jima AB], Iwo Jima Island, 13, JP

Find:

   beyond  
but within

Other Information
Maps:
NOTAMs:
Links:
Sources:

  
  • flag of Brazil
  • flag of Espírito Santo
  

Sectional Chart

Flight Planning
at skyvector.com

Satellite Image

Google Maps Satellite view

 

Copyright © 2004-2019 Karl L. Swartz. All rights reserved.
The Great Circle Mapper name and logo are trademarks of the Great Circle Mapper.
All other trademarks mentioned herein belong to their respective owners.
Please see credits for attibutions and further copyright information.

  Follow gcmap on Facebook Follow gcmap on Twitter GCmap on LinkedIn

hCard Microformat

Geo Microformat